Weather History for Apalachicola, FL

Change the Weather History Date:

Saturday, June 29, 2013

  Actual Average Record
Temperature  
Mean Temperature 81 °F 82 °F  
Max Temperature 88 °F 90 °F 100 °F (1998)
Min Temperature 73 °F 73 °F 67 °F (1985)
Degree Days  
Heating Degree Days 0    
Month to date heating degree days 0  
Since 1 June heating degree days 0  
Since 1 July heating degree days 1129  
Cooling Degree Days 16    
Month to date cooling degree days 489  
Year to date cooling degree days 870  
Since 1 June cooling degree days 489  
Growing Degree Days 30 (Base 50)    
Moisture  
Dew Point 73 °F    
Average Humidity 76    
Maximum Humidity 88    
Minimum Humidity 63    
Precipitation  
Precipitation 0.48 in 0.20 in 5.32 in (1949)
Month to date precipitation 3.65 5.05  
Year to date precipitation 22.93 24.43  
Sea Level Pressure  
Sea Level Pressure 29.79 in    
Wind  
Wind Speed 10 mph (West)    
Max Wind Speed 24 mph    
Max Gust Speed 31 mph    
Visibility 9 miles    
Events Rain    
T = Trace of Precipitation, MM = Missing Value Source: NWS Daily Summary

Daily Weather History Graph

Daily Weather History Graph

Search for Another Location

Airport:

Trip Planner

Search our weather history database for the weather conditions in past years. The results will help you decide how hot, cold, wet, or windy it might be!

Date:

Astronomy

Jun. 29, 2013 Rise Set
Actual Time 6:42 AM EDT 8:44 PM EDT
Civil Twilight 6:15 AM EDT 9:11 PM EDT
Nautical Twilight 5:42 AM EDT 9:44 PM EDT
Astronomical Twilight 5:06 AM EDT 10:20 PM EDT
Moon 12:43 AM EDT (6/29) 1:20 PM EDT (6/29)
Length of Visible Light 14h 56m
Length of Day
14h 02m
Waning Gibbous, 56% of the Moon is Illuminated
Jun 29
Waning Gibbous
Jun 30
Last Quarter
Jul 8
New
Jul 15
First Quarter
Jul 22
Full

Hourly Weather History & Observations

Time (EDT) Temp. Heat Index Dew Point Humidity Pressure Visibility Wind Dir Wind Speed Gust Speed Precip Events Conditions
12:53 AM 84.0 °F 93.7 °F 77.0 °F 79% 29.80 in 10.0 mi WSW 13.8 mph - N/A   Clear
1:53 AM 84.0 °F 93.7 °F 77.0 °F 79% 29.81 in 10.0 mi WSW 15.0 mph 21.9 mph N/A   Partly Cloudy
2:53 AM 84.0 °F 93.7 °F 77.0 °F 79% 29.81 in 10.0 mi WSW 15.0 mph 20.7 mph N/A   Partly Cloudy
3:53 AM 84.0 °F 93.7 °F 77.0 °F 79% 29.79 in 10.0 mi WSW 15.0 mph - N/A   Scattered Clouds
4:53 AM 84.0 °F 92.6 °F 75.9 °F 76% 29.79 in 10.0 mi WSW 12.7 mph - N/A   Clear
5:37 AM 80.6 °F 85.4 °F 73.4 °F 79% 29.78 in 10.0 mi North 19.6 mph 31.1 mph N/A   Mostly Cloudy
5:42 AM 77.0 °F - 71.6 °F 83% 29.79 in 10.0 mi NNE 15.0 mph 31.1 mph N/A   Overcast
5:53 AM 75.9 °F - 71.1 °F 85% 29.79 in 10.0 mi North 11.5 mph - N/A   Overcast
6:09 AM 75.2 °F - 71.6 °F 89% 29.81 in 10.0 mi NNW 8.1 mph - 0.00 in Rain Light Rain
6:20 AM 75.2 °F - 71.6 °F 89% 29.80 in 1.8 mi NNE 16.1 mph - 0.10 in Rain Heavy Rain
6:24 AM 75.2 °F - 69.8 °F 83% 29.81 in 3.0 mi NNE 13.8 mph 17.3 mph 0.13 in Rain Rain
6:38 AM 73.4 °F - 71.6 °F 94% 29.82 in 4.0 mi North 13.8 mph 20.7 mph 0.25 in Rain Light Rain
6:42 AM 73.4 °F - 69.8 °F 88% 29.83 in 9.0 mi North 16.1 mph 20.7 mph 0.25 in Rain Light Rain
6:53 AM 73.0 °F - 69.1 °F 87% 29.82 in 4.0 mi North 6.9 mph - 0.31 in Rain Heavy Rain
7:53 AM 73.0 °F - 70.0 °F 90% 29.82 in 10.0 mi Calm Calm - 0.11 in Rain Light Rain
8:53 AM 73.9 °F - 71.1 °F 91% 29.80 in 10.0 mi Calm Calm - 0.01 in   Clear
9:53 AM 73.9 °F - 71.1 °F 91% 29.83 in 8.0 mi West 6.9 mph - 0.01 in Rain Light Rain
10:53 AM 77.0 °F - 73.0 °F 88% 29.82 in 10.0 mi West 9.2 mph - 0.04 in Rain Light Rain
11:53 AM 78.1 °F - 73.0 °F 84% 29.81 in 10.0 mi WNW 6.9 mph - 0.00 in   Mostly Cloudy
12:53 PM 80.1 °F 83.8 °F 72.0 °F 76% 29.81 in 10.0 mi West 5.8 mph - 0.00 in Rain Light Rain
1:53 PM 82.9 °F 88.0 °F 72.0 °F 69% 29.80 in 10.0 mi SW 9.2 mph - 0.00 in   Partly Cloudy
2:53 PM 87.1 °F 94.5 °F 73.0 °F 63% 29.78 in 10.0 mi West 15.0 mph - 0.00 in   Clear
3:53 PM 86.0 °F 93.8 °F 73.9 °F 67% 29.78 in 10.0 mi WSW 16.1 mph - N/A   Clear
4:53 PM 86.0 °F 95.1 °F 75.0 °F 70% 29.77 in 10.0 mi West 12.7 mph 20.7 mph N/A   Clear
5:53 PM 86.0 °F 93.8 °F 73.9 °F 67% 29.75 in 10.0 mi WSW 13.8 mph 20.7 mph N/A   Clear
6:41 PM 84.2 °F 90.9 °F 73.4 °F 70% 29.73 in 10.0 mi WSW 9.2 mph - N/A   Mostly Cloudy
6:53 PM 84.0 °F 91.2 °F 73.9 °F 72% 29.73 in 10.0 mi WSW 11.5 mph - N/A   Scattered Clouds
7:53 PM 82.9 °F 89.4 °F 73.9 °F 74% 29.74 in 10.0 mi WSW 11.5 mph - N/A   Scattered Clouds
8:53 PM 82.9 °F 88.8 °F 73.0 °F 72% 29.75 in 10.0 mi WSW 8.1 mph - N/A   Clear
9:53 PM 82.0 °F 87.9 °F 73.9 °F 76% 29.76 in 10.0 mi WSW 9.2 mph - N/A   Clear
10:53 PM 82.9 °F 90.2 °F 75.0 °F 77% 29.78 in 10.0 mi SW 10.4 mph - N/A   Partly Cloudy
11:53 PM 82.9 °F 90.2 °F 75.0 °F 77% 29.79 in 10.0 mi WSW 9.2 mph - N/A   Partly Cloudy